Flag for Hungary Weather past 2 weeks in Budapest, Hungary

Now
70 °F

Passing clouds.


Feels Like: 70 °F
Forecast: 49 / 74 °F
Wind: 6 mph from South

Location: Ferenc Liszt International Airport

Current Time: Apr 26, 2015 at 3:26:56 PM

Latest Report: Apr 26, 2015 at 3:00 PM


Visibility: N/A

Pressure: 29.80 "Hg

Humidity: 43%

Dew point: 46 °F

Location of BudapestLocation

Historic Weather in Budapest — Graph

°F

Budapest temperature yesterday

Maximum temperature yesterday: 73 °F (at 3:00 PM)
Minimum temperature yesterday: 41 °F (at 2:30 AM)
Average temperature yesterday: 58 °F

Past Weeks' High & Low Weather Summary

 TemperatureHumidityPressure
High81 °F (Apr 16, 3:00 PM)100% (Apr 17, 10:30 PM)30.36 "Hg (Apr 17, 10:30 PM)
Low28 °F (Apr 20, 2:00 AM)17% (Apr 16, 3:30 PM)29.77 "Hg (Apr 17, 2:00 PM)
Average55 °F51%30.07 "Hg
* Reported Apr 11 2:00 PM — Apr 26 2:00 PM, Budapest, Weather by CustomWeather, © 2015

Note: Actual official high and low records may vary slightly from our data, if they occured in-between our weather recording intervals... More about our weather records

Advertising

Budapest weather history for previous 24 hours

 ConditionsComfort  
Time TempWeatherWind HumidityBarometerVisibility
2:00 PM
Sun, Apr 26
70 °FPassing clouds.7 mph46%29.83 "HgN/A
1:30 PM68 °FScattered clouds.6 mph46%29.86 "HgN/A
1:00 PM66 °FBroken clouds.3 mph52%29.86 "HgN/A
12:30 PM64 °FBroken clouds.6 mph56%29.86 "HgN/A
12:00 PM63 °FBroken clouds.6 mph59%29.86 "HgN/A
11:30 AM63 °FSunny.5 mph59%29.86 "Hg10 mi
11:00 AM61 °FPassing clouds.6 mph63%29.86 "HgN/A
10:30 AM61 °FSunny.9 mph63%29.86 "Hg10 mi
10:00 AM59 °FPassing clouds.9 mph68%29.86 "HgN/A
9:30 AM59 °FPassing clouds.9 mph68%29.86 "HgN/A
9:00 AM59 °FPassing clouds.8 mph68%29.86 "HgN/A
8:30 AM57 °FPassing clouds.7 mph77%29.86 "HgN/A
8:00 AM55 °FSunny.6 mph82%29.86 "Hg10 mi
7:30 AM54 °FSunny.6 mph88%29.86 "Hg10 mi
7:00 AM52 °FSunny.6 mph94%29.86 "Hg10 mi
6:30 AM50 °FClear.7 mph94%29.86 "Hg10 mi
6:00 AM46 °FClear.5 mph100%29.86 "Hg10 mi
5:30 AM48 °FClear.5 mph82%29.86 "Hg10 mi
5:00 AM48 °FClear.5 mph82%29.86 "Hg10 mi
4:30 AM50 °FClear.5 mph76%29.86 "Hg10 mi
4:00 AM50 °FClear.5 mph76%29.89 "Hg10 mi
3:30 AM48 °FClear.5 mph76%29.89 "Hg10 mi
3:00 AM50 °FClear.3 mph76%29.89 "Hg10 mi
2:30 AM52 °FClear.5 mph72%29.89 "Hg10 mi
2:00 AM52 °FClear.5 mph72%29.89 "Hg10 mi
1:30 AM52 °FClear.5 mph72%29.89 "Hg10 mi
1:00 AM52 °FClear.5 mph72%29.89 "Hg10 mi
12:30 AM50 °FClear.3 mph76%29.92 "Hg10 mi
12:00 AM55 °FClear.6 mph63%29.92 "Hg10 mi
11:00 PM
Sat, Apr 25
55 °FClear.5 mph63%29.92 "Hg10 mi
10:30 PM54 °FClear.3 mph63%29.92 "Hg10 mi
10:00 PM54 °FClear.3 mph67%29.92 "Hg10 mi
9:30 PM59 °FClear.6 mph55%29.92 "Hg10 mi
9:00 PM61 °FClear.7 mph52%29.92 "Hg10 mi
8:30 PM61 °FSunny.5 mph52%29.92 "Hg10 mi
8:00 PM64 °FSunny.6 mph46%29.92 "Hg10 mi
7:30 PM68 °FSunny.7 mph40%29.89 "Hg10 mi
7:00 PM70 °FPassing clouds.10 mph38%29.89 "HgN/A
6:30 PM70 °FSunny.10 mph38%29.89 "Hg10 mi
6:00 PM70 °FPassing clouds.12 mph38%29.92 "HgN/A
5:30 PM72 °FPassing clouds.10 mph36%29.92 "HgN/A
5:00 PM72 °FPassing clouds.13 mph38%29.92 "HgN/A
4:30 PM72 °FPassing clouds.14 mph36%29.92 "HgN/A
4:00 PM72 °FPassing clouds.14 mph38%29.92 "HgN/A
3:30 PM72 °FPassing clouds.14 mph36%29.95 "HgN/A
3:00 PM73 °FPassing clouds.13 mph36%29.95 "HgN/A
Weather by CustomWeather, © 2015

See weather overviewHow to use our weather pages